• In Hungary
  • List of Countries
  • For 7 days
  • Water Temperature
  • Satellite Maps
  • Weather Map
  • News
  • Weather Widgets
  • user-avatar
    Login

    Hourly Weather Stanovets'

    Today, 24 February, Saturday

    Time Temperature Precipitation Wind Pressure Humidity
    00:00 -7°C° 0 mm 5 mps 722 mmHg 84%
    01:00 -8°C° 0 mm 5 mps 722 mmHg 82%
    02:00 -2°C° 0 mm 1 mps 723 mmHg 85%
    03:00 -8°C° 0 mm 4 mps 722 mmHg 92%
    04:00 -9°C° 0 mm 6 mps 721 mmHg 81%
    05:00 -10°C° 0 mm 6 mps 721 mmHg 77%
    06:00 -11°C° 0 mm 6 mps 721 mmHg 76%
    07:00 -11°C° 0 mm 6 mps 721 mmHg 76%
    08:00 -12°C° 0 mm 5 mps 721 mmHg 77%
    09:00 -10°C° 0 mm 4 mps 721 mmHg 80%
    10:00 -9°C° 0 mm 4 mps 722 mmHg 82%
    11:00 -6°C° 0 mm 3 mps 722 mmHg 80%
    12:00 -5°C° 0 mm 3 mps 722 mmHg 78%
    13:00 -5°C° 0 mm 3 mps 722 mmHg 74%
    14:00 -3°C° 0 mm 2 mps 722 mmHg 72%
    15:00 -5°C° 0 mm 3 mps 722 mmHg 72%
    16:00 -5°C° 0 mm 3 mps 722 mmHg 75%
    17:00 -7°C° 0 mm 4 mps 722 mmHg 80%
    18:00 -10°C° 0 mm 5 mps 722 mmHg 78%
    19:00 -12°C° 0 mm 6 mps 722 mmHg 77%
    20:00 -14°C° 0 mm 7 mps 722 mmHg 75%
    21:00 -14°C° 0 mm 7 mps 722 mmHg 75%
    22:00 -16°C° 0 mm 8 mps 722 mmHg 77%
    23:00 -15°C° 0 mm 7 mps 722 mmHg 78%

    Tomorrow, 25 February, Sunday

    Time Temperature Precipitation Wind Pressure Humidity
    00:00 -14°C° 0 mm 5 mps 722 mmHg 77%
    01:00 -15°C° 0 mm 4 mps 723 mmHg 77%
    02:00 -15°C° 0 mm 4 mps 723 mmHg 79%
    03:00 -15°C° 0 mm 4 mps 723 mmHg 78%
    04:00 -14°C° 0 mm 3 mps 723 mmHg 80%
    05:00 -14°C° 0 mm 3 mps 723 mmHg 79%
    06:00 -14°C° 0 mm 3 mps 723 mmHg 79%
    07:00 -16°C° 0 mm 4 mps 724 mmHg 78%
    08:00 -16°C° 0 mm 4 mps 724 mmHg 79%
    09:00 -15°C° 0 mm 4 mps 724 mmHg 79%
    10:00 -14°C° 0 mm 4 mps 725 mmHg 79%
    11:00 -12°C° 0 mm 4 mps 725 mmHg 77%
    12:00 -12°C° 0 mm 5 mps 725 mmHg 76%
    13:00 -11°C° 0 mm 5 mps 725 mmHg 75%
    14:00 -11°C° 0 mm 6 mps 725 mmHg 74%
    15:00 -11°C° 0 mm 6 mps 726 mmHg 74%
    16:00 -11°C° 0 mm 6 mps 725 mmHg 73%
    17:00 -12°C° 0 mm 6 mps 725 mmHg 73%
    18:00 -13°C° 0 mm 5 mps 725 mmHg 74%
    19:00 -15°C° 0 mm 6 mps 726 mmHg 73%
    20:00 -15°C° 0 mm 5 mps 726 mmHg 73%
    21:00 -15°C° 0 mm 4 mps 726 mmHg 73%
    22:00 -15°C° 0 mm 3 mps 726 mmHg 75%
    23:00 -15°C° 0 mm 3 mps 726 mmHg 75%

    Day after tomorrow, 26 February, Monday

    Time Temperature Precipitation Wind Pressure Humidity
    00:00 -16°C° 0 mm 3 mps 726 mmHg 74%
    01:00 -16°C° 0 mm 3 mps 726 mmHg 72%
    02:00 -16°C° 0 mm 3 mps 726 mmHg 71%
    03:00 -16°C° 0 mm 3 mps 726 mmHg 70%
    04:00 -17°C° 0 mm 3 mps 725 mmHg 71%
    05:00 -17°C° 0 mm 3 mps 725 mmHg 72%
    06:00 -17°C° 0 mm 3 mps 725 mmHg 72%
    07:00 -17°C° 0 mm 3 mps 725 mmHg 72%
    08:00 -17°C° 0 mm 3 mps 725 mmHg 74%
    09:00 -15°C° 0 mm 3 mps 725 mmHg 74%
    10:00 -13°C° 0 mm 3 mps 725 mmHg 76%
    11:00 -10°C° 0 mm 2 mps 725 mmHg 78%
    12:00 -9°C° 0 mm 3 mps 725 mmHg 76%
    13:00 -9°C° 0 mm 3 mps 725 mmHg 70%
    14:00 -8°C° 0 mm 3 mps 725 mmHg 69%
    15:00 -9°C° 0 mm 4 mps 724 mmHg 70%
    16:00 -11°C° 0 mm 5 mps 723 mmHg 71%
    17:00 -12°C° 0 mm 5 mps 723 mmHg 71%
    18:00 -14°C° 0 mm 6 mps 723 mmHg 69%
    19:00 -15°C° 0 mm 6 mps 723 mmHg 67%
    20:00 -15°C° 0 mm 6 mps 722 mmHg 68%
    21:00 -16°C° 0 mm 6 mps 722 mmHg 68%
    22:00 -15°C° 0 mm 5 mps 722 mmHg 68%
    23:00 -15°C° 0 mm 5 mps 721 mmHg 69%

    27 February, Tuesday

    Time Temperature Precipitation Wind Pressure Humidity
    00:00 -15°C° 0 mm 4 mps 721 mmHg 73%
    01:00 -14°C° 0 mm 3 mps 721 mmHg 79%
    02:00 -14°C° 0 mm 3 mps 720 mmHg 82%
    03:00 -15°C° 0 mm 4 mps 720 mmHg 78%
    04:00 -15°C° 0 mm 5 mps 719 mmHg 76%
    05:00 -15°C° 0 mm 5 mps 718 mmHg 76%
    06:00 -15°C° 0 mm 5 mps 718 mmHg 76%
    07:00 -15°C° 0 mm 5 mps 718 mmHg 76%
    08:00 -15°C° 0 mm 5 mps 718 mmHg 77%
    09:00 -15°C° 0 mm 5 mps 718 mmHg 79%
    10:00 -14°C° 0 mm 5 mps 718 mmHg 79%
    11:00 -14°C° 0 mm 5 mps 718 mmHg 80%
    12:00 -13°C° 0 mm 5 mps 718 mmHg 80%
    13:00 -13°C° 0 mm 5 mps 717 mmHg 78%
    14:00 -12°C° 0 mm 6 mps 717 mmHg 76%
    15:00 -14°C° 0 mm 6 mps 717 mmHg 75%
    16:00 -14°C° 0 mm 7 mps 717 mmHg 75%
    17:00 -15°C° 0 mm 7 mps 717 mmHg 74%
    18:00 -17°C° 0 mm 8 mps 717 mmHg 73%
    19:00 -17°C° 0 mm 8 mps 717 mmHg 74%
    20:00 -18°C° 0 mm 8 mps 717 mmHg 74%
    21:00 -17°C° 0 mm 6 mps 718 mmHg 73%
    22:00 -16°C° 0 mm 4 mps 718 mmHg 76%
    23:00 -16°C° 0 mm 4 mps 718 mmHg 79%

    28 February, Wednesday

    Time Temperature Precipitation Wind Pressure Humidity
    00:00 -16°C° 0 mm 4 mps 718 mmHg 81%
    01:00 -17°C° 0 mm 4 mps 718 mmHg 83%
    02:00 -18°C° 0 mm 5 mps 719 mmHg 84%

    1 March, Thursday

    Time Temperature Precipitation Wind Pressure Humidity
    Show more